Starlink 11191

operational
NORAD ID: 60410 Int'l Des: 2024-141 Owner: SPXS Country: US Constellation: starlink
LEOCIRCULAR

关于 Starlink 11191

正在加载描述...

实时位置

正在加载3D地球...

即将过境

高度历史

Altitude vs Time

uPlot chart will show altitude changes over time

两行轨道根数

1 60410U 24141N 25306.41094067 .00002937 00000-0 29094-4 0 9999
2 60410 53.1579 353.5991 0001328 84.2166 275.9003 15.69710378 71752
Epoch: Nov 2, 2025 • Age: 38 hours

当前状态

高度 361.0 km
速度 7.70 km/s
星下点 31.31°N, 34.36°W
发射日期 Aug 10, 2024
运行时间 1.2 years
类型 internet

技术详情

分类 Payload
质量 960.00 kg
干质量 910.00 kg
总质量 960.00 kg
长度 0.30 m
直径 4.10 m
跨度 29.00 m
形状 Box + pan
制造商 SPXS
平台类型 Starlink V2MD
阶段状态 In Orbit
所有者/国家 SPXS/US

大型星座

Loading constellations...